Presure
196 202 211 236 218 205 194 193 191 190 196 189 204 196 207 195 192 191 183 187 193 197 189 179 197 193 179 168 181 214 226 223 217 209 211 199 197 198 195 194 191 194 201 216 236 236 233
198 198 193 202 215 205 222 189 196 188 190 195 193 190 193 196 194 209 203 200 174 192 187 190 199 194 180 168 176 173 224 217 215 212 208 201 200 203 201 210 199 189 191 207 209 225 166
199 203 197 197 202 195 198 215 219 186 200 194 185 192 196 207 199 210 211 205 206 198 193 194 192 196 175 183 182 177 214 216 209 210 208 205 198 201 188 209 193 213 76 234 191 193 210
203 211 191 186 199 202 195 197 186 206 185 204 205 204 208 189 192 204 209 209 203 199 199 193 192 187 189 173 166 162 179 204 215 207 205 207 192 199 205 208 198 282 211 249 163 178 191
220 200 191 208 197 196 194 201 196 200 192 188 197 195 186 193 196 196 195 200 200 198 196 211 194 186 189 184 185 193 190 210 200 214 202 202 198 200 201 204 250 256 320 248 216 202 199
229 210 205 217 220 222 214 214 199 204 196 199 203 207 203 207 191 218 206 196 194 204 189 188 192 188 185 194 184 181 178 188 202 205 206 201 195 185 199 203 239 259 265 293 247 226 204
227 220 224 223 223 232 232 214 228 219 230 198 199 196 191 203 199 202 185 211 197 197 199 204 189 188 182 188 177 192 190 195 188 193 205 201 191 194 195 197 228 257 252 256 294 251 226
232 222 219 232 231 237 215 207 225 226 222 206 217 216 240 222 207 216 214 222 221 212 197 196 201 191 179 193 194 192 180 190 185 201 193 197 194 190 188 196 207 233 248 264 257 319 247
244 235 236 233 236 236 233 238 211 225 226 218 221 226 217 232 219 218 208 205 204 214 235 217 194 198 195 191 192 183 188 177 188 194 195 189 193 194 187 189 194 230 238 256 252 265 302
242 234 229 236 235 234 236 232 230 218 224 231 233 239 208 225 235 229 225 233 210 210 211 236 208 201 192 191 193 194 179 185 170 189 187 188 199 201 198 201 231 200 240 234 243 242 277
242 234 235 242 250 244 237 228 231 230 231 233 236 228 236 225 221 209 225 218 231 215 208 243 228 219 200 192 182 194 192 188 187 194 206 186 180 191 193 199 229 227 194 234 223 228 248
228 232 250 260 310 316 301 307 318 292 271 257 246 239 256 256 251 225 219 232 231 224 215 239 230 229 212 193 189 192 194 188 186 192 175 210 187 188 191 188 212 237 203 238 229 223 236
241 255 277 319 317 317 315 316 320 318 294 268 274 259 254 249 254 251 241 244 213 224 206 241 222 224 216 204 196 197 195 195 187 181 189 206 199 191 188 194 194 230 230 227 252 234 213
249 263 322 311 320 312 315 311 307 303 301 303 307 270 262 254 248 252 249 252 242 207 232 234 226 213 211 200 219 203 199 201 193 194 191 191 203 192 181 186 192 212 217 220 232 251 247
261 284 316 318 311 310 303 301 302 301 301 297 289 294 276 263 254 249 246 245 240 234 225 233 238 213 209 207 205 216 205 200 202 193 193 191 196 199 196 183 188 194 227 227 216 236 245
266 325 314 313 308 308 302 309 321 334 335 324 317 284 286 269 261 250 250 241 231 236 228 227 225 230 212 211 218 222 208 194 199 198 189 187 192 195 194 193 188 196 219 224 215 227 242
271 322 311 305 307 305 315 324 334 322 313 321 326 326 291 283 268 259 247 252 242 236 227 223 221 231 215 205 203 215 212 207 191 198 199 193 187 189 196 185 193 188 203 224 216 212 231
330 322 308 303 306 314 320 321 318 323 319 313 307 315 315 287 279 277 257 249 238 233 229 232 226 219 226 216 206 209 211 205 199 188 193 202 189 189 187 185 197 196 201 219 208 213 214
328 317 304 304 310 317 318 301 310 311 310 313 301 294 297 304 285 276 265 253 232 235 228 227 224 218 217 224 215 204 208 209 202 193 190 196 191 185 183 197 186 187 197 209 220 218 208
327 317 307 301 314 310 297 306 304 305 306 303 306 296 290 289 296 289 269 254 244 232 232 231 226 218 219 215 219 206 203 206 209 204 200 200 197 189 187 185 190 185 200 215 216 212 211
326 314 308 308 313 296 299 301 292 300 300 306 304 307 291 284 280 287 307 265 247 239 232 228 229 231 221 217 216 216 212 209 209 207 207 205 204 191 191 188 181 187 198 198 211 207 212
318 312 314 309 305 296 288 294 287 283 290 298 301 300 303 304 282 278 284 294 263 245 239 230 225 223 220 223 222 226 219 218 209 213 211 204 203 199 192 190 179 196 203 204 214 202 205
324 315 307 307 296 297 288 283 299 293 295 293 298 309 305 300 308 284 276 275 291 266 251 243 228 225 221 220 227 220 231 226 219 208 208 211 203 201 194 199 205 214 204 203 210 198 200
318 317 306 303 294 293 291 282 304 310 291 280 292 305 306 303 306 304 288 274 275 286 275 255 240 232 222 228 226 228 231 228 235 212 209 210 206 205 199 202 207 209 203 199 209 198 202
317 310 302 297 290 293 297 288 314 302 305 286 290 298 307 289 295 295 304 306 273 269 278 284 261 244 237 231 227 226 226 230 244 219 207 206 204 203 198 208 207 205 206 195 212 203 201
306 305 298 285 295 292 304 311 324 318 302 285 287 285 288 287 284 291 306 300 309 271 263 265 272 275 261 245 245 231 230 228 238 220 213 207 208 204 203 208 206 204 201 202 218 206 195
304 292 284 297 297 306 308 317 331 329 310 282 281 319 325 276 282 290 296 297 302 304 266 260 265 270 275 264 261 255 241 229 236 226 214 212 213 207 205 203 207 205 214 221 221 197 198
284 290 296 297 305 314 315 323 324 321 302 299 314 313 315 316 309 276 286 299 292 300 299 269 257 261 267 267 260 253 249 237 232 234 218 214 216 213 213 213 202 217 214 222 212 200 194
294 301 298 305 313 323 323 315 306 314 303 305 306 300 306 309 310 324 289 281 273 288 300 296 276 257 257 264 262 257 246 239 233 225 233 227 214 208 213 207 210 209 201 220 212 204 202
Wind_Speed
53 53 55 57 62 64 64 65 66 66 64 65 70 65 69 67 66 64 62 62 56 51 50 55 53 46 45 39 33 33 36 38 42 46 47 55 56 56 57 60 61 60 63 63 66 73 81
57 57 57 58 59 57 65 64 68 66 66 69 68 65 64 62 61 61 63 65 55 57 56 56 51 47 48 42 40 40 34 37 40 44 46 51 53 53 56 58 62 57 53 62 63 70 49
62 59 64 63 62 59 61 65 70 64 76 72 67 74 78 76 68 66 61 64 64 60 59 54 50 46 51 50 46 41 34 37 40 41 44 48 52 53 56 51 56 53 17 71 66 68 74
63 60 64 60 65 66 66 67 63 71 64 74 76 75 74 68 67 68 64 64 63 61 58 55 52 55 49 52 42 42 44 39 38 41 44 45 53 51 50 48 53 28 54 67 60 70 72
59 67 63 63 70 67 69 71 73 73 69 67 72 71 66 69 70 69 66 64 65 63 59 52 57 57 56 55 53 47 46 38 40 38 44 45 49 50 50 48 35 31 28 65 70 75 75
64 65 63 62 63 66 69 72 78 79 75 76 77 79 77 74 67 74 73 69 65 65 61 61 60 61 58 56 56 51 48 46 43 41 44 46 49 54 49 47 38 35 37 34 67 76 77
68 66 66 66 65 66 66 71 70 75 72 81 80 76 72 76 74 75 61 74 67 66 66 67 64 65 63 59 58 51 51 47 48 47 43 45 51 52 49 49 43 35 39 41 33 69 78
70 70 69 70 70 67 71 72 72 71 75 78 77 78 69 80 80 78 76 70 73 74 71 69 62 66 65 61 56 53 55 50 50 47 48 47 52 52 52 49 44 34 35 34 40 39 68
64 67 69 72 71 71 72 70 72 72 75 76 76 77 76 73 79 80 78 73 73 70 71 77 67 68 67 64 61 60 59 53 52 50 49 51 50 51 52 51 49 37 34 32 33 35 40
65 70 75 76 76 77 76 75 75 72 73 77 75 75 77 75 74 74 75 74 75 72 69 71 72 73 65 68 61 61 62 59 55 54 52 51 46 44 48 45 37 46 37 35 35 35 30
70 73 77 81 81 83 82 79 80 81 82 82 81 79 79 78 76 75 71 80 74 77 66 67 71 73 71 65 67 62 64 60 60 57 45 57 55 51 51 47 34 39 39 42 44 42 39
75 80 84 82 73 72 73 73 74 80 86 89 89 86 82 77 80 75 78 75 73 71 64 63 63 68 74 72 70 68 65 64 63 55 54 47 59 54 53 53 35 32 43 32 48 47 32
84 86 87 69 66 65 66 66 65 66 70 75 77 80 78 78 76 77 80 77 76 68 66 61 65 67 72 74 75 71 68 63 65 61 58 52 59 55 51 49 47 32 35 37 34 47 49
90 89 68 65 61 59 57 56 57 60 61 61 66 78 80 78 75 76 76 75 70 69 65 64 66 71 73 75 72 73 70 65 65 61 61 56 52 58 58 53 48 34 32 39 36 37 45
92 89 65 59 55 53 53 53 53 54 56 59 59 66 78 79 77 76 75 68 64 66 70 68 65 72 74 74 73 71 71 68 67 65 61 60 59 55 55 54 51 46 31 36 41 35 37
90 65 60 55 52 50 49 47 45 42 43 49 53 64 68 78 78 77 74 68 65 71 72 69 65 65 72 73 72 69 71 71 67 65 68 63 62 56 56 50 51 44 35 30 41 36 35
89 60 56 52 50 48 43 40 39 39 41 40 41 48 63 71 78 78 71 67 70 75 74 74 72 66 75 77 75 71 69 73 73 68 70 65 64 61 56 52 52 53 36 29 37 40 31
62 54 53 50 46 43 39 38 37 38 40 40 41 42 48 63 67 71 74 72 74 77 76 76 76 70 66 80 78 74 71 73 74 75 72 64 64 60 61 58 50 42 39 29 38 39 38
55 51 50 46 42 40 38 38 37 36 38 40 43 46 47 49 64 70 75 77 77 81 80 79 77 76 74 75 78 75 75 77 78 79 74 67 64 64 61 55 49 48 47 40 38 37 39
50 47 46 43 38 38 38 37 37 37 37 41 44 49 50 50 53 67 76 80 82 84 84 81 82 79 77 77 75 76 78 82 80 81 78 73 65 64 65 58 60 52 49 41 38 36 38
45 43 42 39 37 38 38 38 39 39 39 41 43 48 52 54 56 58 59 80 84 89 86 85 81 82 85 80 79 77 84 85 85 84 82 75 68 68 68 67 58 56 52 45 38 42 36
43 40 38 37 37 38 39 39 41 41 42 45 46 48 49 56 61 61 60 66 86 93 93 91 86 86 86 81 83 80 86 87 87 87 84 78 73 71 69 68 56 57 52 49 41 44 43
39 38 37 37 38 38 39 41 42 42 43 45 46 49 50 55 57 65 67 68 69 90 94 96 93 91 87 84 84 81 78 80 87 86 83 81 78 75 69 71 69 56 48 50 45 50 48
38 37 37 38 39 40 41 41 43 43 42 43 45 47 48 53 55 61 70 69 70 71 85 94 95 96 91 92 85 85 78 76 77 88 86 81 79 77 72 75 63 54 51 54 51 52 47
38 38 39 39 41 42 43 43 44 42 44 42 42 44 46 51 53 58 64 70 72 72 70 76 91 98 103 95 88 84 79 76 73 86 85 83 81 77 75 72 66 57 56 58 55 56 54
39 39 40 41 43 44 47 47 45 42 43 43 42 44 46 50 54 57 59 65 70 74 73 74 78 84 94 97 98 89 84 76 74 83 90 89 87 85 81 74 63 63 62 63 62 58 57
41 41 43 45 45 47 48 48 44 40 41 44 44 45 45 50 55 56 58 62 67 74 77 77 77 76 82 85 87 87 87 83 78 86 92 92 89 85 82 70 63 64 65 67 63 59 63
43 45 47 48 50 49 49 47 43 41 41 43 45 48 48 47 55 57 58 61 64 69 77 82 80 80 78 84 87 85 83 83 82 83 94 94 92 86 84 79 65 64 68 65 65 65 69
49 50 51 52 52 50 47 46 45 44 45 45 46 50 53 52 55 56 61 62 63 67 73 80 89 82 81 81 85 85 84 84 85 87 86 92 90 85 84 79 70 73 74 70 71 72 70
Wind_Direction
282 279 274 267 262 266 268 267 266 265 262 262 262 264 262 261 264 264 262 262 260 256 255 261 263 258 261 255 258 266 254 247 243 240 240 236 237 238 235 236 234 233 236 238 233 232 233
284 281 279 277 269 266 259 269 264 267 267 267 266 266 265 262 262 262 257 257 261 254 253 255 259 256 257 258 264 261 257 248 244 242 240 237 239 241 238 237 236 236 241 239 237 234 231
281 277 278 278 273 273 268 259 256 269 260 263 269 266 266 266 267 264 255 255 252 251 254 252 252 252 259 260 263 262 258 250 244 242 241 240 240 244 236 240 239 239 209 229 234 236 236
276 272 282 286 273 271 273 271 268 261 269 261 261 261 258 264 265 263 260 253 251 248 249 251 250 251 250 256 256 249 265 253 247 241 241 240 240 244 245 243 236 245 235 227 229 233 237
284 274 284 278 274 275 274 267 267 264 267 269 264 263 264 264 263 261 259 255 252 252 249 243 248 250 249 255 256 252 259 252 251 242 239 239 242 244 245 244 247 241 240 227 226 231 233
289 281 275 274 271 268 265 263 266 262 267 264 261 260 260 258 261 254 255 256 256 252 254 254 248 248 252 249 253 257 257 257 247 245 238 239 240 243 247 248 249 239 237 227 227 225 232
290 287 284 280 274 271 267 265 264 260 260 264 264 265 263 261 259 258 256 256 256 257 253 247 248 248 251 251 254 252 251 250 254 247 243 239 241 245 247 248 246 249 239 233 238 229 229
289 286 285 282 279 273 268 266 264 264 261 259 256 256 254 253 258 256 255 253 251 249 251 251 248 249 253 250 248 249 253 248 252 246 245 241 243 245 248 249 250 250 249 235 236 248 232
289 284 283 282 277 274 271 267 263 264 261 259 258 256 255 252 252 253 257 256 255 252 248 246 247 247 246 250 249 249 249 250 249 247 244 245 247 247 250 250 251 253 251 248 231 248 229
290 286 285 280 278 275 271 268 268 266 265 263 260 257 254 254 253 251 251 247 253 252 251 245 243 243 243 245 246 243 249 250 248 248 246 247 244 245 249 256 257 253 247 245 246 241 243
294 289 286 283 278 274 271 272 271 269 267 266 261 258 257 252 251 251 248 249 245 249 249 242 242 239 242 243 244 244 244 246 247 245 243 245 249 245 249 252 267 251 249 242 240 243 238
295 293 295 290 287 277 273 270 266 261 259 258 258 258 255 250 249 250 248 244 244 243 244 238 241 238 238 240 242 242 243 242 245 244 246 243 244 245 247 253 263 263 248 247 243 244 240
302 303 306 294 288 281 277 273 269 265 259 254 251 250 250 247 246 246 245 245 245 242 245 237 235 237 236 236 239 241 242 239 242 244 242 239 240 242 246 247 252 267 256 249 257 240 238
306 308 299 294 289 284 279 274 269 264 260 255 249 246 245 243 243 242 242 240 240 242 240 236 226 234 236 237 236 238 240 240 240 242 242 241 243 239 242 246 250 262 255 254 252 253 248
311 312 300 295 290 286 281 276 271 266 259 254 248 243 240 239 239 239 238 237 236 234 235 234 225 228 235 237 237 233 236 236 237 237 238 239 239 239 240 245 248 252 262 249 253 259 251
312 303 299 295 292 288 283 278 272 265 259 255 248 241 238 235 236 237 236 236 233 230 230 232 231 223 230 233 235 233 232 234 235 236 237 238 242 240 241 239 243 247 261 257 249 253 253
314 302 299 295 292 289 284 275 268 262 258 252 248 241 236 235 235 235 235 230 229 229 229 230 230 228 224 231 234 234 231 233 234 233 234 232 240 242 243 242 242 245 252 260 255 250 257
303 299 296 294 292 286 279 273 267 261 255 246 242 241 237 232 231 227 227 223 226 227 227 227 228 224 227 224 228 232 231 231 232 234 236 233 236 241 243 244 245 250 252 263 249 248 248
302 298 295 293 290 284 278 276 268 260 255 246 239 236 235 233 228 226 223 220 224 227 227 227 226 227 225 228 223 229 231 233 232 235 237 235 232 238 246 245 247 248 252 250 249 247 245
300 297 295 292 285 279 277 272 267 261 253 249 239 236 231 231 229 226 223 221 221 226 227 227 225 228 228 228 225 226 230 233 233 235 236 235 231 235 241 240 244 249 252 252 252 249 247
300 296 293 288 281 278 275 270 267 262 257 250 243 238 234 230 228 227 225 223 222 223 226 228 228 226 228 225 226 224 226 230 232 234 236 235 232 232 237 241 245 246 249 247 253 246 247
299 295 290 286 279 275 273 271 268 265 260 255 248 241 236 231 228 227 226 222 222 222 222 226 227 229 230 227 229 226 225 224 228 232 233 235 233 232 236 241 245 243 245 250 247 248 247
297 293 288 282 279 277 273 272 271 267 262 258 254 248 240 235 229 225 225 224 221 223 223 222 223 228 231 231 230 231 227 227 226 230 233 232 234 235 234 240 242 242 244 246 247 244 246
296 290 287 283 281 280 277 275 274 271 262 259 257 252 244 240 233 227 225 224 223 223 225 224 225 227 230 231 231 233 230 227 224 229 233 233 233 236 236 239 243 243 240 240 244 242 244
295 292 288 286 285 284 282 278 278 271 266 259 256 251 244 239 234 229 226 226 223 223 223 222 225 226 228 229 230 230 230 227 225 226 230 233 234 234 236 239 239 239 243 240 237 236 239
297 294 291 290 288 287 287 284 283 275 266 262 256 250 243 239 236 232 226 225 223 221 221 221 221 221 228 229 228 229 229 226 225 222 227 230 231 233 234 236 237 239 238 243 234 232 239
300 296 294 293 291 290 287 286 285 277 268 261 258 255 245 238 237 232 228 226 223 221 221 223 223 222 221 222 225 226 225 224 220 217 226 228 230 233 238 237 237 240 241 236 230 230 236
301 299 296 294 293 291 288 287 283 277 268 263 257 254 249 239 236 232 229 225 222 221 221 221 224 222 220 219 219 220 219 218 218 218 221 228 231 230 233 234 231 233 232 230 228 229 236
302 299 297 296 293 293 291 286 282 278 272 265 257 253 250 244 237 231 229 225 223 221 219 220 219 223 222 219 218 218 217 218 216 218 220 224 230 230 233 235 229 229 229 226 225 228 230